Location: Bazugues
(43.4465°N, 0.3432°E)
Time: 06:58:50
(UTC+00:00)

Cosmos 2074 Rocket - Pass Details

Date: 12 January 2026
Orbit: 966 x 986 km, 82.9° (Epoch: 10 February)

Event Time Altitude Azimuth Distance (km) Brightness Sun altitude
Rises 17:04:43 0° 350° (N) 3,693 6.9 -4.1°
Reaches altitude 10° 17:07:15 10° 349° (N) 2,738 6.2 -4.5°
Maximum altitude 17:13:30 75° 265° (W) 1,011 4.3 -5.5°
Drops below altitude 10° 17:19:40 10° 181° (S) 2,705 6.7 -6.6°
Sets 17:22:10 0° 180° (S) 3,646 7.3 -7.0°
